Flag for Venezuela Weather past 2 weeks in Caracas, Venezuela

Now
82 °F

Passing clouds.


Feels Like: 89 °F
Forecast: 66 / 76 °F
Wind: 7 mph from East

Location: Caracas / Maiquetia Aerop. Intl. Simon Bolivar

Current Time: Jan 31, 2015 at 1:24:33 AM

Latest Report: Jan 31, 2015 at 12:30 AM


Visibility: N/A

Pressure: 29.98 "Hg

Humidity: 79%

Dew point: 75 °F

Location of CaracasLocation

Historic Weather in Caracas — Graph

°F

Caracas temperature yesterday

Maximum temperature yesterday: 88 °F (at 10:30 AM)
Minimum temperature yesterday: 77 °F (at 4:30 AM)
Average temperature yesterday: 83 °F

Past Weeks' High & Low Weather Summary

 TemperatureHumidityPressure
High91 °F (Jan 21, 1:30 PM)94% (Jan 18, 12:30 AM)30.01 "Hg (Jan 18, 12:30 AM)
Low77 °F (Jan 17, 4:30 AM)55% (Jan 19, 10:30 AM)29.86 "Hg (Jan 27, 4:30 PM)
Average83 °F75%29.94 "Hg
* Reported Jan 16 1:30 AM — Jan 31 12:30 AM, Caracas, Weather by CustomWeather, © 2014

Note: Actual official high and low records may vary slightly from our data, if they occured in-between our weather recording intervals... More about our weather records

Advertising

Caracas weather history for previous 24 hours

 ConditionsComfort  
Time TempWeatherWind HumidityBarometerVisibility
12:30 AM
Jan 31
82 °FPassing clouds.7 mph79%29.98 "HgN/A
11:30 PM
Jan 30
82 °FPassing clouds.2 mph84%29.98 "HgN/A
10:30 PM82 °FPassing clouds.3 mph89%29.98 "HgN/A
9:30 PM82 °FPassing clouds.3 mph89%29.95 "HgN/A
8:30 PM82 °FPassing clouds.2 mph84%29.95 "HgN/A
7:30 PM82 °FPassing clouds.6 mph89%29.92 "HgN/A
6:30 PM84 °FPassing clouds.2 mph84%29.92 "HgN/A
5:30 PM86 °FScattered clouds.2 mph79%29.89 "HgN/A
4:30 PM86 °FScattered clouds.3 mph84%29.89 "HgN/A
3:30 PM88 °FScattered clouds.3 mph79%29.92 "HgN/A
2:30 PM88 °FScattered clouds.5 mph79%29.92 "HgN/A
1:30 PM88 °FScattered clouds.5 mph75%29.95 "HgN/A
12:30 PM88 °FWarm.N/A79%29.98 "HgN/A
11:30 AM86 °FScattered clouds.3 mph75%29.98 "HgN/A
10:30 AM88 °FWarm.5 mph75%30.01 "HgN/A
9:30 AM86 °FPassing clouds.3 mph66%29.98 "HgN/A
8:30 AM84 °FPassing clouds.5 mph74%29.95 "HgN/A
7:30 AM79 °FPassing clouds.No wind79%29.92 "HgN/A
6:30 AM79 °FPassing clouds.6 mph74%29.92 "HgN/A
5:30 AM77 °FPassing clouds.No wind74%29.89 "HgN/A
4:30 AM77 °FPassing clouds.No wind74%29.89 "HgN/A
3:30 AM79 °FPassing clouds.No wind79%29.86 "HgN/A
2:30 AM79 °FPassing clouds.No wind79%29.89 "HgN/A
1:30 AM79 °FPassing clouds.No wind74%29.89 "HgN/A
Weather by CustomWeather, © 2014

See weather overviewHow to use our weather pages